EWG652 LZKZ-LOWS

Flight info

Callsign EWG652
Flight time 0h 53m
Altitude 38000
Route TAKOS DCT TOVKA DCT MATIG MATIG2R
Aircraft A319/M-SDE3FGHIRWY/LB1

Departure

Time 2026-04-22 17:59
Airport Košice International Airport (LZKZ)

Arrival

Time 2026-04-22 18:53
Airport Salzburg Airport (LOWS)
Time Latitude Longitude Altitude Speed Heading
2026-04-22 17:32 48.67230 21.23795 755 ft 0 kts 69°
2026-04-22 17:43 48.67230 21.23794 757 ft 0 kts 69°
2026-04-22 17:51 48.67230 21.23795 757 ft 1 kts 69°
2026-04-22 17:51 48.67237 21.23823 753 ft 5 kts 69°
2026-04-22 17:52 48.67257 21.23872 756 ft 6 kts 26°
2026-04-22 17:52 48.67299 21.23912 753 ft 9 kts 63°
2026-04-22 17:52 48.67291 21.24013 754 ft 12 kts 103°
2026-04-22 17:52 48.67268 21.24160 757 ft 16 kts 103°
2026-04-22 17:53 48.67241 21.24330 757 ft 18 kts 103°
2026-04-22 17:53 48.67214 21.24518 758 ft 19 kts 102°
2026-04-22 17:53 48.67188 21.24730 757 ft 21 kts 78°
2026-04-22 17:53 48.67217 21.24770 753 ft 1 kts 230°
2026-04-22 17:54 48.67163 21.24758 753 ft 16 kts 188°
2026-04-22 17:54 48.66991 21.24703 758 ft 35 kts 193°
2026-04-22 17:54 48.66735 21.24616 757 ft 39 kts 193°
2026-04-22 17:54 48.66519 21.24540 757 ft 27 kts 193°
2026-04-22 17:55 48.66394 21.24496 757 ft 28 kts 193°
2026-04-22 17:55 48.66132 21.24404 757 ft 30 kts 193°
2026-04-22 17:55 48.65923 21.24329 755 ft 32 kts 193°
2026-04-22 17:55 48.65704 21.24253 754 ft 33 kts 192°
2026-04-22 17:56 48.65475 21.24174 757 ft 35 kts 193°
2026-04-22 17:56 48.65245 21.24095 757 ft 30 kts 193°
2026-04-22 17:56 48.65059 21.24031 757 ft 27 kts 192°
2026-04-22 17:56 48.64906 21.23903 756 ft 22 kts 249°
2026-04-22 17:57 48.64959 21.23694 757 ft 24 kts 321°
2026-04-22 17:57 48.65113 21.23703 758 ft 19 kts 11°
2026-04-22 17:57 48.65160 21.23719 757 ft 0 kts 13°
2026-04-22 17:58 48.65164 21.23720 757 ft 3 kts 13°
2026-04-22 17:58 48.65332 21.23780 757 ft 53 kts 13°
2026-04-22 17:58 48.65880 21.23970 758 ft 107 kts 13°
2026-04-22 17:59 48.66774 21.24280 804 ft 151 kts 12°
2026-04-22 17:59 48.67818 21.24641 1317 ft 155 kts 12°
2026-04-22 17:59 48.68870 21.25008 2004 ft 157 kts 12°
2026-04-22 17:59 48.70000 21.25400 2356 ft 178 kts 11°
2026-04-22 18:00 48.70834 21.25688 2638 ft 191 kts 11°
2026-04-22 18:00 48.72599 21.26302 3729 ft 196 kts 11°
2026-04-22 18:00 48.73965 21.26680 4423 ft 209 kts 358°
2026-04-22 18:00 48.75416 21.26004 4870 ft 235 kts 325°
2026-04-22 18:01 48.76363 21.23893 5555 ft 257 kts 287°
2026-04-22 18:01 48.76357 21.21131 6526 ft 269 kts 264°
2026-04-22 18:01 48.75934 21.18343 7466 ft 274 kts 258°
2026-04-22 18:01 48.75371 21.15556 8392 ft 279 kts 255°
2026-04-22 18:02 48.74767 21.12743 9296 ft 283 kts 255°
2026-04-22 18:02 48.74165 21.09885 10167 ft 288 kts 255°
2026-04-22 18:02 48.73555 21.06879 10529 ft 310 kts 256°
2026-04-22 18:02 48.72967 21.03615 10777 ft 332 kts 261°
2026-04-22 18:03 48.72571 21.00049 10970 ft 354 kts 263°
2026-04-22 18:03 48.72212 20.96298 11472 ft 364 kts 264°
2026-04-22 18:03 48.71869 20.92470 12108 ft 370 kts 265°
2026-04-22 18:03 48.71525 20.88596 12783 ft 374 kts 265°
2026-04-22 18:04 48.71173 20.84660 13395 ft 380 kts 265°
2026-04-22 18:04 48.70812 20.80715 14000 ft 386 kts 264°
2026-04-22 18:04 48.70434 20.76670 14570 ft 391 kts 264°
2026-04-22 18:04 48.70044 20.72569 15179 ft 396 kts 264°
2026-04-22 18:05 48.69643 20.68418 15793 ft 400 kts 264°
2026-04-22 18:05 48.69235 20.64236 16401 ft 404 kts 264°
2026-04-22 18:05 48.68819 20.59999 17001 ft 409 kts 264°
2026-04-22 18:05 48.68401 20.55720 17594 ft 413 kts 264°
2026-04-22 18:06 48.67979 20.51393 18189 ft 418 kts 264°
2026-04-22 18:06 48.67552 20.47019 18720 ft 423 kts 264°
2026-04-22 18:06 48.67119 20.42600 19195 ft 427 kts 264°
2026-04-22 18:06 48.66677 20.38134 19632 ft 432 kts 264°
2026-04-22 18:07 48.66382 20.35153 19913 ft 435 kts 264°
2026-04-22 18:07 48.65778 20.29053 20556 ft 441 kts 264°
2026-04-22 18:07 48.65319 20.24444 20992 ft 445 kts 264°
2026-04-22 18:07 48.64855 20.19798 21422 ft 449 kts 264°
2026-04-22 18:08 48.64383 20.15107 21861 ft 453 kts 263°
2026-04-22 18:08 48.63901 20.10367 22292 ft 457 kts 263°
2026-04-22 18:08 48.63415 20.05606 22758 ft 460 kts 263°
2026-04-22 18:08 48.62922 20.00816 23196 ft 463 kts 263°
2026-04-22 18:09 48.62425 19.96000 23592 ft 466 kts 263°
2026-04-22 18:09 48.61920 19.91130 23943 ft 470 kts 263°
2026-04-22 18:09 48.61416 19.86227 24202 ft 475 kts 263°
2026-04-22 18:09 48.60905 19.81276 24519 ft 479 kts 263°
2026-04-22 18:10 48.60383 19.76286 24823 ft 483 kts 263°
2026-04-22 18:10 48.59853 19.71257 25140 ft 487 kts 263°
2026-04-22 18:10 48.59320 19.66195 25456 ft 490 kts 263°
2026-04-22 18:10 48.58780 19.61082 25746 ft 494 kts 263°
2026-04-22 18:11 48.58236 19.55942 26050 ft 497 kts 262°
2026-04-22 18:11 48.57686 19.50777 26332 ft 501 kts 262°
2026-04-22 18:11 48.57126 19.45558 26611 ft 505 kts 262°
2026-04-22 18:11 48.56561 19.40314 26879 ft 508 kts 262°
2026-04-22 18:12 48.55996 19.35108 27156 ft 511 kts 262°
2026-04-22 18:12 48.55416 19.29803 27451 ft 514 kts 262°
2026-04-22 18:12 48.55019 19.26202 27674 ft 515 kts 262°
2026-04-22 18:12 48.54240 19.19127 28073 ft 518 kts 262°
2026-04-22 18:13 48.53650 19.13748 28357 ft 521 kts 262°
2026-04-22 18:13 48.53057 19.08351 28733 ft 521 kts 262°
2026-04-22 18:13 48.52460 19.02949 29072 ft 523 kts 262°
2026-04-22 18:13 48.51859 18.97537 29434 ft 524 kts 262°
2026-04-22 18:14 48.51252 18.92114 29807 ft 525 kts 261°
2026-04-22 18:14 48.50640 18.86682 30137 ft 526 kts 261°
2026-04-22 18:14 48.50023 18.81238 30469 ft 527 kts 261°
2026-04-22 18:14 48.49403 18.75799 30883 ft 525 kts 261°
2026-04-22 18:15 48.48793 18.70438 31662 ft 514 kts 262°
2026-04-22 18:15 48.48201 18.65232 32804 ft 494 kts 262°
2026-04-22 18:15 48.47623 18.60215 33854 ft 482 kts 262°
2026-04-22 18:15 48.47048 18.55256 34331 ft 479 kts 262°
2026-04-22 18:16 48.46479 18.50336 34799 ft 475 kts 262°
2026-04-22 18:16 48.45916 18.45463 35271 ft 470 kts 262°
2026-04-22 18:16 48.45350 18.40604 35530 ft 471 kts 262°
2026-04-22 18:16 48.44778 18.35736 35773 ft 473 kts 262°
2026-04-22 18:17 48.44202 18.30859 36017 ft 474 kts 262°
2026-04-22 18:17 48.43622 18.25959 36144 ft 478 kts 262°
2026-04-22 18:17 48.43039 18.21014 36174 ft 481 kts 262°
2026-04-22 18:18 48.41859 18.11075 36168 ft 483 kts 262°
2026-04-22 18:18 48.40865 18.02808 36167 ft 483 kts 262°
2026-04-22 18:19 48.39657 17.92852 36172 ft 483 kts 262°
2026-04-22 18:19 48.38441 17.82909 36179 ft 483 kts 262°
2026-04-22 18:20 48.37393 17.72947 36169 ft 481 kts 266°
2026-04-22 18:20 48.36785 17.62943 36186 ft 480 kts 268°
2026-04-22 18:21 48.36258 17.52938 36190 ft 479 kts 268°
2026-04-22 18:21 48.35710 17.42960 36168 ft 479 kts 267°
2026-04-22 18:22 48.35109 17.32999 36171 ft 478 kts 267°
2026-04-22 18:22 48.34486 17.23041 36176 ft 478 kts 267°
2026-04-22 18:23 48.33873 17.13162 36179 ft 478 kts 267°
2026-04-22 18:23 48.33254 17.03219 36178 ft 478 kts 267°
2026-04-22 18:24 48.32314 16.88310 36185 ft 478 kts 267°
2026-04-22 18:25 48.31348 16.73397 36180 ft 478 kts 266°
2026-04-22 18:25 48.30685 16.63460 36197 ft 478 kts 266°
2026-04-22 18:26 48.29688 16.48582 36188 ft 477 kts 266°
2026-04-22 18:26 48.29014 16.38684 36199 ft 476 kts 266°
2026-04-22 18:27 48.28325 16.28798 36206 ft 476 kts 266°
2026-04-22 18:27 48.27977 16.23851 35986 ft 477 kts 266°
2026-04-22 18:27 48.27629 16.18905 35621 ft 477 kts 266°
2026-04-22 18:28 48.27279 16.13953 35274 ft 478 kts 266°
2026-04-22 18:28 48.26928 16.08990 34920 ft 479 kts 266°
2026-04-22 18:28 48.26576 16.04012 34551 ft 480 kts 266°
2026-04-22 18:28 48.26219 15.99019 34201 ft 481 kts 266°
2026-04-22 18:29 48.25858 15.94030 33792 ft 483 kts 266°
2026-04-22 18:29 48.25491 15.89003 33381 ft 485 kts 265°
2026-04-22 18:29 48.25122 15.83968 32979 ft 488 kts 265°
2026-04-22 18:29 48.24746 15.78894 32582 ft 490 kts 265°
2026-04-22 18:30 48.24369 15.73808 32195 ft 493 kts 265°
2026-04-22 18:30 48.23599 15.63522 31425 ft 498 kts 265°
2026-04-22 18:30 48.23213 15.58434 31042 ft 497 kts 265°
2026-04-22 18:31 48.22813 15.53216 30668 ft 496 kts 265°
2026-04-22 18:31 48.22413 15.48074 30296 ft 497 kts 264°
2026-04-22 18:31 48.22019 15.42994 29866 ft 498 kts 265°
2026-04-22 18:31 48.21621 15.37824 29439 ft 498 kts 265°
2026-04-22 18:32 48.21224 15.32665 29011 ft 499 kts 265°
2026-04-22 18:32 48.20823 15.27504 28589 ft 499 kts 265°
2026-04-22 18:32 48.20418 15.22343 28174 ft 498 kts 265°
2026-04-22 18:32 48.20008 15.17185 27780 ft 498 kts 265°
2026-04-22 18:33 48.19596 15.12031 27349 ft 498 kts 265°
2026-04-22 18:33 48.19185 15.06886 26953 ft 496 kts 265°
2026-04-22 18:33 48.18772 15.01757 26562 ft 496 kts 265°
2026-04-22 18:33 48.18358 14.96631 26163 ft 496 kts 265°
2026-04-22 18:34 48.17940 14.91505 25770 ft 496 kts 265°
2026-04-22 18:34 48.17518 14.86381 25269 ft 496 kts 265°
2026-04-22 18:34 48.17093 14.81255 24788 ft 496 kts 265°
2026-04-22 18:34 48.16666 14.76120 24306 ft 496 kts 265°
2026-04-22 18:35 48.16240 14.70993 23821 ft 495 kts 265°
2026-04-22 18:35 48.15816 14.65902 23238 ft 491 kts 265°
2026-04-22 18:35 48.15391 14.60846 22685 ft 485 kts 265°
2026-04-22 18:35 48.14970 14.55906 22137 ft 471 kts 265°
2026-04-22 18:36 48.14560 14.51137 22012 ft 451 kts 265°
2026-04-22 18:36 48.14168 14.46598 22004 ft 429 kts 265°
2026-04-22 18:36 48.13793 14.42265 21999 ft 411 kts 265°
2026-04-22 18:36 48.13430 14.38097 21887 ft 397 kts 265°
2026-04-22 18:37 48.13081 14.34054 21636 ft 387 kts 265°
2026-04-22 18:37 48.12738 14.30081 21218 ft 383 kts 265°
2026-04-22 18:37 48.12399 14.26149 20753 ft 379 kts 265°
2026-04-22 18:37 48.12061 14.22248 20296 ft 377 kts 265°
2026-04-22 18:38 48.11720 14.18379 19820 ft 374 kts 265°
2026-04-22 18:38 48.11380 14.14533 19362 ft 371 kts 265°
2026-04-22 18:38 48.11044 14.10715 18875 ft 370 kts 265°
2026-04-22 18:39 48.10367 14.03107 17815 ft 367 kts 265°
2026-04-22 18:39 48.10030 13.99388 17286 ft 365 kts 265°
2026-04-22 18:39 48.09689 13.95633 16755 ft 364 kts 265°
2026-04-22 18:39 48.09351 13.91897 16234 ft 362 kts 266°
2026-04-22 18:40 48.09013 13.88180 15726 ft 360 kts 266°
2026-04-22 18:40 48.08674 13.84482 15221 ft 358 kts 266°
2026-04-22 18:40 48.08334 13.80803 14724 ft 356 kts 266°
2026-04-22 18:40 48.07997 13.77139 14236 ft 355 kts 266°
2026-04-22 18:41 48.07663 13.73491 13693 ft 353 kts 265°
2026-04-22 18:41 48.07329 13.69859 13152 ft 351 kts 265°
2026-04-22 18:41 48.06996 13.66250 12619 ft 349 kts 265°
2026-04-22 18:41 48.06660 13.62666 12096 ft 347 kts 265°
2026-04-22 18:42 48.06327 13.59138 11575 ft 339 kts 264°
2026-04-22 18:42 48.06000 13.55684 11078 ft 332 kts 264°
2026-04-22 18:42 48.05689 13.52333 10862 ft 316 kts 265°
2026-04-22 18:42 48.05415 13.49176 10856 ft 302 kts 265°
2026-04-22 18:43 48.05159 13.46074 10840 ft 299 kts 266°
2026-04-22 18:43 48.04908 13.43013 10499 ft 296 kts 265°
2026-04-22 18:43 48.04660 13.39975 10185 ft 293 kts 265°
2026-04-22 18:43 48.04413 13.36962 9836 ft 291 kts 265°
2026-04-22 18:44 48.04166 13.33977 9374 ft 288 kts 265°
2026-04-22 18:44 48.03920 13.31012 8953 ft 287 kts 265°
2026-04-22 18:44 48.03671 13.28066 8608 ft 285 kts 265°
2026-04-22 18:44 48.03419 13.25129 8215 ft 285 kts 265°
2026-04-22 18:45 48.03166 13.22205 7874 ft 283 kts 264°
2026-04-22 18:45 48.02914 13.19297 7533 ft 281 kts 265°
2026-04-22 18:45 48.02664 13.16408 7211 ft 279 kts 265°
2026-04-22 18:45 48.02415 13.13540 6892 ft 277 kts 265°
2026-04-22 18:46 48.02169 13.10695 6572 ft 275 kts 265°
2026-04-22 18:46 48.01923 13.07906 6235 ft 274 kts 264°
2026-04-22 18:46 48.01673 13.05099 5909 ft 272 kts 264°
2026-04-22 18:46 48.01424 13.02324 5623 ft 266 kts 264°
2026-04-22 18:47 48.01183 12.99658 5494 ft 252 kts 264°
2026-04-22 18:47 48.00953 12.97135 5363 ft 239 kts 264°
2026-04-22 18:47 48.00507 12.94786 5203 ft 229 kts 246°
2026-04-22 18:47 47.99629 12.92880 5151 ft 213 kts 228°
2026-04-22 18:48 47.98495 12.91539 5080 ft 210 kts 211°
2026-04-22 18:48 47.97145 12.90723 4928 ft 210 kts 194°
2026-04-22 18:48 47.95683 12.90514 4720 ft 207 kts 176°
2026-04-22 18:48 47.94322 12.90905 4470 ft 201 kts 160°
2026-04-22 18:49 47.93035 12.91706 4204 ft 200 kts 156°
2026-04-22 18:49 47.91768 12.92511 3940 ft 195 kts 156°
2026-04-22 18:49 47.90517 12.93305 3670 ft 189 kts 156°
2026-04-22 18:49 47.89362 12.94038 3438 ft 177 kts 156°
2026-04-22 18:50 47.88268 12.94732 3198 ft 165 kts 156°
2026-04-22 18:50 47.87244 12.95383 2994 ft 163 kts 157°
2026-04-22 18:50 47.86184 12.96055 2766 ft 166 kts 157°
2026-04-22 18:50 47.85173 12.96696 2525 ft 149 kts 157°
2026-04-22 18:51 47.84252 12.97280 2326 ft 141 kts 158°
2026-04-22 18:51 47.83363 12.97839 2126 ft 137 kts 158°
2026-04-22 18:51 47.82491 12.98401 1946 ft 136 kts 158°
2026-04-22 18:51 47.81619 12.98958 1750 ft 136 kts 158°
2026-04-22 18:52 47.80753 12.99508 1565 ft 134 kts 159°
2026-04-22 18:52 47.79904 13.00033 1423 ft 124 kts 157°
2026-04-22 18:52 47.79241 13.00451 1421 ft 79 kts 157°
2026-04-22 18:52 47.78850 13.00698 1420 ft 51 kts 157°
2026-04-22 18:53 47.78606 13.00848 1421 ft 24 kts 166°
2026-04-22 18:53 47.78533 13.00720 1420 ft 18 kts 259°
2026-04-22 18:53 47.78607 13.00586 1420 ft 20 kts 336°
2026-04-22 18:53 47.78742 13.00500 1422 ft 22 kts 336°
2026-04-22 18:54 47.78870 13.00417 1421 ft 13 kts 337°
2026-04-22 18:54 47.78946 13.00350 1420 ft 12 kts 304°
2026-04-22 18:54 47.78955 13.00227 1422 ft 11 kts 272°
2026-04-22 18:54 47.78997 13.00127 1422 ft 13 kts 335°
2026-04-22 18:55 47.79074 13.00069 1422 ft 10 kts 300°
2026-04-22 18:55 47.79088 12.99979 1422 ft 6 kts 281°
2026-04-22 18:55 47.79091 12.99954 1422 ft 0 kts 281°